Total_Precipitation_Accumulation
0.00 0.03 0.07 0.11 0.08 0.03 0.03 0.02 0.04 0.06 0.07 0.10 0.08 0.07 0.08 0.08 0.12 0.20 0.21 0.19 0.14 0.12 0.13 0.15 0.21 0.19 0.17 0.24 0.32 0.32 0.29 0.29 0.28 0.14 0.05 0.02 0.01 0.00 0.00 0.00 0.00 0.00 0.00
0.01 0.04 0.07 0.11 0.09 0.07 0.08 0.08 0.10 0.14 0.16 0.12 0.07 0.06 0.05 0.04 0.05 0.07 0.10 0.12 0.10 0.11 0.11 0.10 0.13 0.15 0.12 0.16 0.29 0.33 0.29 0.27 0.32 0.20 0.08 0.04 0.02 0.01 0.00 0.00 0.00 0.00 0.00
0.03 0.09 0.08 0.08 0.11 0.12 0.10 0.16 0.15 0.10 0.07 0.04 0.02 0.03 0.02 0.02 0.01 0.01 0.01 0.01 0.02 0.03 0.04 0.04 0.05 0.10 0.08 0.10 0.18 0.25 0.28 0.25 0.25 0.21 0.11 0.08 0.06 0.03 0.01 0.00 0.00 0.00 0.00
0.04 0.12 0.09 0.08 0.12 0.12 0.15 0.18 0.12 0.06 0.03 0.02 0.02 0.02 0.01 0.01 0.00 0.00 0.00 0.01 0.01 0.00 0.00 0.00 0.01 0.03 0.04 0.05 0.07 0.15 0.25 0.25 0.19 0.18 0.13 0.15 0.15 0.12 0.07 0.01 0.00 0.00 0.00
0.03 0.08 0.09 0.10 0.10 0.13 0.15 0.10 0.11 0.07 0.01 0.00 0.00 0.02 0.01 0.01 0.00 0.00 0.00 0.00 0.00 0.00 0.00 0.00 0.01 0.03 0.04 0.07 0.09 0.15 0.23 0.33 0.34 0.34 0.40 0.45 0.47 0.38 0.22 0.07 0.01 0.00 0.00
0.04 0.11 0.10 0.10 0.07 0.12 0.15 0.10 0.11 0.10 0.05 0.01 0.00 0.00 0.00 0.00 0.00 0.00 0.00 0.00 0.00 0.00 0.00 0.01 0.02 0.02 0.02 0.05 0.07 0.07 0.15 0.39 0.50 0.81 1.10 1.03 0.91 0.67 0.36 0.14 0.03 0.00 0.00
0.09 0.16 0.11 0.10 0.08 0.12 0.12 0.06 0.07 0.10 0.10 0.02 0.00 0.00 0.00 0.00 0.00 0.00 0.00 0.00 0.00 0.00 0.00 0.01 0.01 0.02 0.01 0.01 0.03 0.03 0.08 0.28 0.35 0.64 1.08 1.32 1.25 0.79 0.35 0.13 0.03 0.00 0.00
0.11 0.14 0.16 0.12 0.10 0.13 0.17 0.17 0.14 0.13 0.11 0.04 0.01 0.00 0.00 0.00 0.00 0.00 0.00 0.00 0.00 0.00 0.00 0.00 0.00 0.00 0.01 0.01 0.02 0.02 0.04 0.10 0.16 0.27 0.53 0.96 0.98 0.55 0.21 0.07 0.01 0.00 0.00
0.05 0.10 0.16 0.17 0.14 0.16 0.27 0.38 0.30 0.22 0.16 0.11 0.06 0.03 0.01 0.01 0.00 0.00 0.00 0.00 0.00 0.00 0.00 0.00 0.00 0.00 0.00 0.01 0.03 0.05 0.02 0.04 0.16 0.23 0.30 0.50 0.55 0.34 0.14 0.03 0.00 0.00 0.00
0.04 0.11 0.17 0.17 0.20 0.26 0.35 0.40 0.32 0.28 0.22 0.18 0.13 0.08 0.04 0.02 0.01 0.00 0.00 0.00 0.00 0.00 0.00 0.00 0.00 0.00 0.00 0.00 0.01 0.02 0.01 0.03 0.18 0.19 0.23 0.29 0.28 0.21 0.10 0.02 0.00 0.00 0.00
0.09 0.14 0.17 0.18 0.20 0.24 0.31 0.32 0.35 0.30 0.24 0.20 0.14 0.08 0.05 0.04 0.02 0.01 0.00 0.00 0.00 0.00 0.00 0.00 0.00 0.00 0.00 0.00 0.02 0.02 0.00 0.03 0.20 0.17 0.11 0.10 0.09 0.07 0.03 0.01 0.00 0.00 0.00
0.14 0.18 0.18 0.18 0.18 0.22 0.29 0.29 0.26 0.23 0.21 0.18 0.12 0.05 0.04 0.03 0.02 0.02 0.01 0.01 0.01 0.00 0.00 0.00 0.00 0.00 0.00 0.01 0.02 0.01 0.02 0.04 0.15 0.18 0.07 0.03 0.02 0.01 0.01 0.00 0.00 0.00 0.00
0.11 0.12 0.16 0.15 0.14 0.17 0.25 0.25 0.21 0.17 0.13 0.11 0.06 0.02 0.01 0.01 0.01 0.01 0.01 0.00 0.01 0.00 0.01 0.00 0.00 0.00 0.00 0.02 0.05 0.03 0.04 0.03 0.05 0.05 0.03 0.01 0.01 0.00 0.00 0.00 0.00 0.00 0.00
0.11 0.08 0.07 0.08 0.09 0.10 0.14 0.19 0.20 0.17 0.12 0.09 0.03 0.02 0.01 0.01 0.01 0.01 0.02 0.04 0.05 0.04 0.03 0.04 0.02 0.00 0.00 0.01 0.03 0.05 0.04 0.01 0.01 0.01 0.01 0.00 0.00 0.00 0.00 0.00 0.00 0.00 0.00
0.18 0.11 0.07 0.05 0.05 0.05 0.09 0.12 0.15 0.11 0.09 0.07 0.04 0.04 0.03 0.03 0.04 0.08 0.12 0.11 0.13 0.13 0.14 0.15 0.15 0.04 0.00 0.01 0.01 0.05 0.03 0.01 0.01 0.00 0.00 0.00 0.00 0.00 0.00 0.00 0.00 0.00 0.00
0.24 0.16 0.10 0.07 0.04 0.04 0.04 0.03 0.05 0.04 0.02 0.03 0.05 0.06 0.10 0.12 0.13 0.16 0.20 0.22 0.22 0.24 0.21 0.20 0.22 0.12 0.02 0.00 0.01 0.01 0.01 0.00 0.00 0.01 0.00 0.00 0.00 0.00 0.00 0.00 0.00 0.00 0.00
0.15 0.11 0.07 0.03 0.01 0.00 0.00 0.00 0.01 0.01 0.00 0.01 0.02 0.05 0.13 0.19 0.20 0.25 0.27 0.24 0.25 0.30 0.24 0.26 0.27 0.17 0.07 0.01 0.01 0.01 0.01 0.02 0.02 0.01 0.01 0.00 0.00 0.00 0.00 0.00 0.00 0.00 0.00
0.03 0.02 0.01 0.00 0.00 0.00 0.00 0.00 0.00 0.00 0.01 0.01 0.01 0.03 0.07 0.12 0.17 0.23 0.27 0.26 0.25 0.28 0.25 0.31 0.34 0.28 0.20 0.07 0.03 0.02 0.01 0.01 0.01 0.01 0.00 0.00 0.00 0.00 0.00 0.00 0.00 0.00 0.00
0.00 0.00 0.00 0.00 0.00 0.00 0.00 0.00 0.00 0.00 0.01 0.01 0.01 0.02 0.04 0.08 0.13 0.15 0.19 0.22 0.25 0.31 0.28 0.34 0.41 0.34 0.28 0.16 0.10 0.05 0.03 0.03 0.01 0.00 0.00 0.00 0.00 0.00 0.01 0.01 0.00 0.00 0.00
0.00 0.00 0.00 0.00 0.00 0.00 0.00 0.00 0.00 0.01 0.01 0.01 0.01 0.02 0.03 0.06 0.10 0.13 0.15 0.15 0.17 0.20 0.19 0.26 0.37 0.34 0.32 0.22 0.21 0.13 0.07 0.06 0.04 0.02 0.01 0.00 0.00 0.01 0.01 0.02 0.01 0.00 0.00
0.00 0.00 0.00 0.00 0.00 0.00 0.00 0.01 0.01 0.01 0.01 0.01 0.01 0.02 0.04 0.07 0.08 0.09 0.11 0.14 0.14 0.19 0.19 0.18 0.24 0.30 0.29 0.24 0.21 0.19 0.15 0.12 0.12 0.06 0.06 0.04 0.04 0.05 0.03 0.03 0.01 0.01 0.01
0.00 0.00 0.00 0.00 0.00 0.00 0.00 0.00 0.01 0.01 0.01 0.01 0.01 0.01 0.02 0.04 0.08 0.11 0.14 0.14 0.11 0.14 0.17 0.18 0.18 0.19 0.17 0.16 0.17 0.18 0.19 0.17 0.18 0.11 0.11 0.10 0.08 0.11 0.07 0.05 0.04 0.04 0.03
0.00 0.00 0.00 0.00 0.00 0.00 0.00 0.00 0.00 0.00 0.00 0.00 0.00 0.01 0.01 0.02 0.05 0.07 0.06 0.05 0.06 0.07 0.09 0.12 0.15 0.22 0.27 0.22 0.21 0.21 0.21 0.21 0.19 0.09 0.11 0.18 0.13 0.15 0.06 0.13 0.14 0.10 0.05
0.00 0.00 0.00 0.00 0.00 0.00 0.00 0.00 0.00 0.00 0.00 0.00 0.00 0.00 0.00 0.00 0.00 0.00 0.00 0.00 0.00 0.01 0.01 0.01 0.03 0.13 0.42 0.52 0.40 0.32 0.24 0.15 0.11 0.07 0.06 0.17 0.12 0.12 0.04 0.04 0.06 0.04 0.02
0.00 0.00 0.00 0.00 0.00 0.00 0.00 0.00 0.00 0.00 0.00 0.00 0.00 0.00 0.00 0.00 0.00 0.00 0.00 0.00 0.00 0.00 0.00 0.00 0.01 0.03 0.11 0.28 0.41 0.40 0.35 0.28 0.26 0.18 0.08 0.14 0.13 0.09 0.08 0.04 0.01 0.01 0.00
0.00 0.00 0.00 0.00 0.00 0.00 0.00 0.00 0.00 0.00 0.00 0.00 0.00 0.00 0.00 0.00 0.00 0.00 0.00 0.00 0.00 0.00 0.00 0.00 0.00 0.00 0.00 0.01 0.03 0.06 0.10 0.15 0.18 0.15 0.06 0.08 0.12 0.13 0.13 0.07 0.01 0.00 0.00